sat.trackr.live / text

‹ back to catalog

STARLINK-31402

NORAD 59320 · 2024-057A

PAYLOAD ACTIVE UNKNOWN

§ Identity

Operator
Country
US
Launch date
2024-03-25
Launch site
AFETR
Launch vehicle
Mass (kg)
RCS (m²)

Purposes: comms

External: N2YO · Heavens-Above · Gunter

§ Orbital elements

Epoch: 2026-09-19T00:41:27.285792Z

Period
93.43 min
Inclination
42.9943°
Eccentricity
0.0015868
Mean motion
15.41243728 rev/d
Perigee alt
431.6 km
Apogee alt
453.3 km
Semi-major
6,820.6 km
B*
7.4726e-4
RAAN
120.2478°
Arg perigee
242.8335°
Mean anomaly
117.0904°
Rev number
14,002

§ Raw data

STARLINK-314021 59320U 24057A   26262.02878803  .00031745  00000+0  74726-3 0  99992 59320  42.9943 120.2478 0015868 242.8335 117.0904 15.41243728140027

JSON: /api/v1/satellites/59320 · /tle

For live sub-satellite position, see the globe view (requires WebGL).

§ Visibility from observer

Set your observer location to see the next 7 days of passes ≥ 10°. The values pass through the URL so the page stays shareable.

No JS? Fill the form by hand. The geolocation button needs JavaScript.